AAL110 SKSP-MPTO

Flight info

Callsign AAL110
Flight time 0h 52m
Altitude 35000
Route BIXOX2B BIXOX DCT MORLI DCT OSUPA OSUPA2
Aircraft B738/M-SDE2E3FGHIRWXY/LB1

Departure

Time 2026-04-27 20:48
Airport Gustavo Rojas Pinilla International Airport (SKSP)

Arrival

Time 2026-04-27 21:41
Airport Tocumen International Airport (MPTO)
Time Latitude Longitude Altitude Speed Heading
2026-04-27 20:06 12.58645 -81.70305 21 ft 0 kts 150°
2026-04-27 20:38 12.58647 -81.70306 21 ft 2 kts 150°
2026-04-27 20:38 12.58660 -81.70312 21 ft 2 kts 166°
2026-04-27 20:38 12.58675 -81.70315 21 ft 2 kts 177°
2026-04-27 20:38 12.58690 -81.70314 21 ft 2 kts 190°
2026-04-27 20:39 12.58705 -81.70309 21 ft 2 kts 202°
2026-04-27 20:39 12.58718 -81.70303 21 ft 2 kts 215°
2026-04-27 20:39 12.58729 -81.70293 21 ft 2 kts 227°
2026-04-27 20:39 12.58738 -81.70281 20 ft 2 kts 239°
2026-04-27 20:40 12.58744 -81.70270 20 ft 2 kts 236°
2026-04-27 20:40 12.58749 -81.70263 20 ft 1 kts 238°
2026-04-27 20:40 12.58750 -81.70261 20 ft 0 kts 240°
2026-04-27 20:42 12.58749 -81.70263 20 ft 0 kts 240°
2026-04-27 20:43 12.58745 -81.70270 20 ft 4 kts 240°
2026-04-27 20:43 12.58711 -81.70337 21 ft 10 kts 257°
2026-04-27 20:43 12.58727 -81.70410 22 ft 13 kts 292°
2026-04-27 20:43 12.58704 -81.70529 24 ft 23 kts 241°
2026-04-27 20:44 12.58594 -81.70716 25 ft 37 kts 239°
2026-04-27 20:44 12.58465 -81.70947 28 ft 36 kts 239°
2026-04-27 20:44 12.58337 -81.71164 27 ft 34 kts 238°
2026-04-27 20:44 12.58219 -81.71372 27 ft 32 kts 241°
2026-04-27 20:45 12.58107 -81.71569 27 ft 31 kts 238°
2026-04-27 20:45 12.58002 -81.71755 27 ft 29 kts 239°
2026-04-27 20:45 12.57900 -81.71928 26 ft 26 kts 238°
2026-04-27 20:45 12.57842 -81.71976 25 ft 4 kts 202°
2026-04-27 20:46 12.57812 -81.72001 25 ft 7 kts 227°
2026-04-27 20:46 12.57814 -81.72047 24 ft 9 kts 330°
2026-04-27 20:46 12.57839 -81.72034 24 ft 3 kts 59°
2026-04-27 20:46 12.57848 -81.72019 24 ft 1 kts 59°
2026-04-27 20:47 12.57853 -81.72011 24 ft 1 kts 59°
2026-04-27 20:47 12.57858 -81.72002 24 ft 4 kts 59°
2026-04-27 20:47 12.57945 -81.71854 27 ft 54 kts 59°
2026-04-27 20:47 12.58282 -81.71271 28 ft 132 kts 59°
2026-04-27 20:48 12.58842 -81.70287 141 ft 181 kts 60°
2026-04-27 20:48 12.59509 -81.69064 574 ft 211 kts 61°
2026-04-27 20:48 12.60221 -81.67821 1776 ft 198 kts 57°
2026-04-27 20:48 12.60968 -81.66673 2415 ft 204 kts 56°
2026-04-27 20:49 12.61750 -81.65414 2941 ft 216 kts 59°
2026-04-27 20:49 12.62495 -81.64031 3360 ft 234 kts 63°
2026-04-27 20:49 12.63192 -81.62452 3980 ft 247 kts 67°
2026-04-27 20:49 12.63799 -81.60789 4612 ft 260 kts 70°
2026-04-27 20:50 12.64361 -81.58978 5319 ft 269 kts 73°
2026-04-27 20:50 12.64838 -81.57152 6128 ft 273 kts 75°
2026-04-27 20:50 12.65242 -81.55250 6918 ft 277 kts 78°
2026-04-27 20:50 12.65533 -81.53294 7731 ft 281 kts 82°
2026-04-27 20:51 12.65711 -81.51295 8466 ft 285 kts 85°
2026-04-27 20:51 12.65791 -81.49263 9189 ft 290 kts 88°
2026-04-27 20:51 12.65764 -81.47202 9927 ft 294 kts 91°
2026-04-27 20:51 12.65603 -81.45081 10455 ft 307 kts 95°
2026-04-27 20:52 12.65297 -81.42877 10863 ft 323 kts 98°
2026-04-27 20:52 12.64845 -81.40585 11373 ft 334 kts 102°
2026-04-27 20:52 12.64236 -81.38294 12069 ft 339 kts 106°
2026-04-27 20:52 12.63446 -81.36007 12778 ft 343 kts 110°
2026-04-27 20:53 12.62500 -81.33747 13468 ft 347 kts 114°
2026-04-27 20:53 12.61416 -81.31554 14177 ft 350 kts 118°
2026-04-27 20:53 12.60151 -81.29421 14902 ft 353 kts 123°
2026-04-27 20:53 12.58727 -81.27371 15579 ft 358 kts 127°
2026-04-27 20:54 12.55450 -81.23528 16964 ft 364 kts 135°
2026-04-27 20:54 12.53543 -81.21771 17632 ft 367 kts 139°
2026-04-27 20:54 12.51547 -81.20152 18237 ft 372 kts 143°
2026-04-27 20:55 12.49405 -81.18655 18894 ft 374 kts 148°
2026-04-27 20:55 12.47118 -81.17342 19523 ft 377 kts 153°
2026-04-27 20:55 12.44773 -81.16219 20153 ft 378 kts 157°
2026-04-27 20:55 12.42291 -81.15219 20764 ft 380 kts 162°
2026-04-27 20:56 12.39776 -81.14450 21352 ft 382 kts 167°
2026-04-27 20:56 12.37163 -81.13896 21928 ft 384 kts 172°
2026-04-27 20:56 12.34474 -81.13555 22468 ft 387 kts 176°
2026-04-27 20:56 12.31778 -81.13400 23055 ft 388 kts 179°
2026-04-27 20:57 12.29071 -81.13326 23611 ft 389 kts 180°
2026-04-27 20:57 12.26378 -81.13270 24208 ft 389 kts 180°
2026-04-27 20:57 12.23650 -81.13219 24720 ft 392 kts 180°
2026-04-27 20:57 12.20907 -81.13171 25295 ft 392 kts 180°
2026-04-27 20:58 12.18182 -81.13126 25779 ft 395 kts 180°
2026-04-27 20:58 12.15425 -81.13080 26341 ft 394 kts 180°
2026-04-27 20:58 12.12699 -81.13036 26800 ft 397 kts 180°
2026-04-27 20:58 12.09911 -81.12991 27278 ft 398 kts 181°
2026-04-27 20:59 12.07121 -81.12946 27760 ft 399 kts 181°
2026-04-27 20:59 12.04370 -81.12902 28229 ft 400 kts 180°
2026-04-27 20:59 12.01549 -81.12857 28657 ft 402 kts 181°
2026-04-27 20:59 11.98739 -81.12812 29081 ft 403 kts 181°
2026-04-27 21:00 11.95932 -81.12769 29404 ft 407 kts 181°
2026-04-27 21:00 11.93074 -81.12723 29825 ft 409 kts 181°
2026-04-27 21:00 11.90221 -81.12678 30226 ft 410 kts 181°
2026-04-27 21:00 11.87337 -81.12632 30556 ft 414 kts 181°
2026-04-27 21:01 11.84446 -81.12586 30947 ft 415 kts 181°
2026-04-27 21:01 11.81579 -81.12540 31272 ft 418 kts 181°
2026-04-27 21:01 11.78661 -81.12492 31650 ft 420 kts 181°
2026-04-27 21:01 11.75685 -81.12444 31958 ft 423 kts 181°
2026-04-27 21:02 11.72741 -81.12398 32284 ft 425 kts 181°
2026-04-27 21:02 11.69771 -81.12349 32782 ft 422 kts 181°
2026-04-27 21:02 11.66828 -81.12302 32890 ft 426 kts 181°
2026-04-27 21:03 11.60934 -81.12197 32888 ft 419 kts 180°
2026-04-27 21:03 11.55182 -81.11336 32892 ft 422 kts 164°
2026-04-27 21:04 11.49814 -81.08762 32895 ft 429 kts 154°
2026-04-27 21:04 11.44614 -81.05709 32893 ft 428 kts 153°
2026-04-27 21:05 11.39464 -81.02635 32894 ft 429 kts 153°
2026-04-27 21:05 11.34320 -80.99617 32891 ft 428 kts 154°
2026-04-27 21:06 11.29142 -80.96613 32891 ft 428 kts 154°
2026-04-27 21:06 11.23962 -80.93622 32887 ft 429 kts 154°
2026-04-27 21:07 11.18809 -80.90650 32883 ft 428 kts 154°
2026-04-27 21:07 11.13629 -80.87666 32882 ft 429 kts 154°
2026-04-27 21:08 11.08438 -80.84678 32882 ft 429 kts 154°
2026-04-27 21:08 11.03255 -80.81696 32882 ft 429 kts 154°
2026-04-27 21:09 10.98018 -80.78683 32884 ft 430 kts 154°
2026-04-27 21:09 10.92821 -80.75690 32884 ft 429 kts 153°
2026-04-27 21:10 10.87621 -80.72696 32882 ft 429 kts 154°
2026-04-27 21:10 10.82433 -80.69716 32882 ft 430 kts 154°
2026-04-27 21:11 10.77194 -80.66710 32881 ft 430 kts 154°
2026-04-27 21:11 10.71984 -80.63689 32879 ft 430 kts 151°
2026-04-27 21:12 10.67307 -80.59872 32882 ft 437 kts 137°
2026-04-27 21:12 10.63398 -80.55099 32882 ft 440 kts 130°
2026-04-27 21:13 10.59734 -80.50062 32881 ft 443 kts 129°
2026-04-27 21:13 10.56109 -80.45021 32879 ft 441 kts 130°
2026-04-27 21:14 10.52516 -80.40073 32879 ft 442 kts 130°
2026-04-27 21:14 10.48869 -80.35088 32881 ft 441 kts 130°
2026-04-27 21:15 10.45197 -80.30089 32884 ft 440 kts 130°
2026-04-27 21:15 10.41545 -80.25127 32884 ft 439 kts 130°
2026-04-27 21:16 10.37878 -80.20152 32884 ft 440 kts 130°
2026-04-27 21:16 10.34211 -80.15173 32885 ft 440 kts 130°
2026-04-27 21:17 10.30533 -80.10184 32884 ft 441 kts 130°
2026-04-27 21:17 10.26872 -80.05224 32884 ft 442 kts 130°
2026-04-27 21:18 10.23163 -80.00200 32884 ft 442 kts 130°
2026-04-27 21:18 10.19465 -79.95193 32884 ft 441 kts 130°
2026-04-27 21:19 10.15795 -79.90222 32884 ft 440 kts 130°
2026-04-27 21:19 10.12141 -79.85275 32884 ft 440 kts 130°
2026-04-27 21:20 10.06640 -79.77837 32809 ft 437 kts 130°
2026-04-27 21:20 10.04817 -79.75369 32442 ft 431 kts 130°
2026-04-27 21:20 10.03035 -79.72953 32027 ft 426 kts 130°
2026-04-27 21:21 10.01251 -79.70536 31501 ft 424 kts 130°
2026-04-27 21:21 9.99498 -79.68168 30942 ft 422 kts 130°
2026-04-27 21:21 9.97735 -79.65788 30368 ft 420 kts 130°
2026-04-27 21:21 9.96001 -79.63448 29799 ft 419 kts 130°
2026-04-27 21:22 9.94254 -79.61088 29226 ft 417 kts 130°
2026-04-27 21:22 9.92518 -79.58743 28655 ft 415 kts 130°
2026-04-27 21:22 9.90791 -79.56411 28095 ft 413 kts 129°
2026-04-27 21:22 9.89074 -79.54093 27536 ft 411 kts 129°
2026-04-27 21:23 9.87285 -79.51852 26972 ft 408 kts 134°
2026-04-27 21:23 9.85245 -79.49942 26659 ft 397 kts 146°
2026-04-27 21:23 9.82892 -79.48529 26234 ft 391 kts 154°
2026-04-27 21:23 9.80412 -79.47345 25686 ft 389 kts 157°
2026-04-27 21:24 9.77946 -79.46267 25172 ft 388 kts 158°
2026-04-27 21:24 9.75445 -79.45200 24654 ft 386 kts 158°
2026-04-27 21:24 9.72996 -79.44149 24148 ft 385 kts 157°
2026-04-27 21:24 9.70513 -79.43071 23635 ft 384 kts 157°
2026-04-27 21:25 9.68073 -79.41998 23129 ft 383 kts 156°
2026-04-27 21:25 9.65634 -79.40916 22626 ft 381 kts 156°
2026-04-27 21:25 9.63201 -79.39828 22122 ft 380 kts 156°
2026-04-27 21:25 9.60810 -79.38754 21629 ft 380 kts 156°
2026-04-27 21:26 9.58422 -79.37629 21093 ft 380 kts 153°
2026-04-27 21:26 9.56109 -79.36285 20539 ft 380 kts 147°
2026-04-27 21:26 9.53925 -79.34787 19946 ft 382 kts 144°
2026-04-27 21:26 9.51772 -79.33194 19416 ft 381 kts 143°
2026-04-27 21:27 9.49682 -79.31604 18909 ft 379 kts 142°
2026-04-27 21:27 9.47586 -79.30001 18482 ft 375 kts 142°
2026-04-27 21:27 9.45499 -79.28406 18045 ft 372 kts 142°
2026-04-27 21:27 9.43437 -79.26842 17566 ft 370 kts 142°
2026-04-27 21:28 9.41358 -79.25278 17072 ft 369 kts 142°
2026-04-27 21:28 9.39301 -79.23738 16593 ft 367 kts 143°
2026-04-27 21:28 9.37252 -79.22211 16185 ft 363 kts 143°
2026-04-27 21:28 9.35244 -79.20715 15747 ft 360 kts 143°
2026-04-27 21:29 9.33212 -79.19202 15272 ft 359 kts 143°
2026-04-27 21:29 9.31211 -79.17710 14792 ft 357 kts 143°
2026-04-27 21:29 9.29171 -79.16257 14306 ft 356 kts 147°
2026-04-27 21:29 9.26964 -79.15170 13841 ft 355 kts 163°
2026-04-27 21:30 9.24526 -79.14977 13389 ft 352 kts 189°
2026-04-27 21:30 9.22243 -79.15814 12951 ft 350 kts 210°
2026-04-27 21:30 9.20204 -79.17146 12473 ft 348 kts 215°
2026-04-27 21:30 9.18243 -79.18562 12002 ft 346 kts 216°
2026-04-27 21:31 9.16279 -79.19985 11547 ft 344 kts 215°
2026-04-27 21:31 9.14337 -79.21356 11080 ft 342 kts 214°
2026-04-27 21:31 9.12360 -79.22717 10632 ft 339 kts 214°
2026-04-27 21:31 9.10396 -79.24050 10160 ft 337 kts 214°
2026-04-27 21:32 9.08463 -79.25351 9867 ft 330 kts 214°
2026-04-27 21:32 9.06587 -79.26607 9613 ft 322 kts 214°
2026-04-27 21:32 9.04720 -79.27854 9147 ft 322 kts 214°
2026-04-27 21:32 9.02841 -79.29108 8712 ft 321 kts 214°
2026-04-27 21:33 9.00945 -79.30308 8237 ft 318 kts 210°
2026-04-27 21:33 8.99032 -79.31383 7820 ft 316 kts 208°
2026-04-27 21:33 8.97088 -79.32420 7423 ft 314 kts 208°
2026-04-27 21:33 8.95163 -79.33447 7029 ft 312 kts 208°
2026-04-27 21:34 8.93253 -79.34480 6639 ft 310 kts 208°
2026-04-27 21:34 8.91371 -79.35512 6247 ft 308 kts 208°
2026-04-27 21:34 8.89483 -79.36552 5776 ft 309 kts 208°
2026-04-27 21:34 8.87580 -79.37624 5306 ft 309 kts 212°
2026-04-27 21:35 8.85876 -79.38927 4912 ft 306 kts 227°
2026-04-27 21:35 8.84760 -79.40694 4588 ft 299 kts 256°
2026-04-27 21:35 8.84674 -79.42718 4417 ft 279 kts 286°
2026-04-27 21:35 8.85383 -79.44447 4101 ft 265 kts 305°
2026-04-27 21:36 8.86441 -79.45881 3944 ft 247 kts 314°
2026-04-27 21:36 8.87660 -79.47037 3725 ft 234 kts 330°
2026-04-27 21:36 8.89143 -79.47543 3508 ft 219 kts 360°
2026-04-27 21:36 8.90633 -79.47357 3204 ft 215 kts 17°
2026-04-27 21:37 8.91925 -79.46663 2904 ft 211 kts 37°
2026-04-27 21:37 8.93068 -79.45730 2608 ft 207 kts 32°
2026-04-27 21:37 8.94295 -79.45029 2266 ft 205 kts 24°
2026-04-27 21:37 8.95576 -79.44383 2006 ft 199 kts 27°
2026-04-27 21:38 8.96753 -79.43735 1752 ft 184 kts 27°
2026-04-27 21:38 8.97796 -79.43153 1568 ft 158 kts 27°
2026-04-27 21:38 8.98716 -79.42636 1299 ft 140 kts 28°
2026-04-27 21:38 8.99547 -79.42165 1146 ft 135 kts 28°
2026-04-27 21:39 9.00382 -79.41705 1004 ft 141 kts 27°
2026-04-27 21:39 9.01248 -79.41219 802 ft 142 kts 29°
2026-04-27 21:39 9.02114 -79.40717 617 ft 143 kts 27°
2026-04-27 21:39 9.03001 -79.40231 433 ft 145 kts 29°
2026-04-27 21:40 9.03885 -79.39734 255 ft 146 kts 30°
2026-04-27 21:40 9.04780 -79.39246 79 ft 146 kts 27°
2026-04-27 21:40 9.05656 -79.38748 41 ft 135 kts 31°
2026-04-27 21:40 9.06336 -79.38362 51 ft 82 kts 31°
2026-04-27 21:41 9.06741 -79.38132 52 ft 58 kts 28°
2026-04-27 21:41 9.07041 -79.37965 52 ft 31 kts 27°
2026-04-27 21:41 9.07152 -79.37933 53 ft 9 kts 325°
2026-04-27 21:41 9.07196 -79.37981 54 ft 9 kts 301°
2026-04-27 21:42 9.07197 -79.38021 55 ft 3 kts 257°
2026-04-27 21:42 9.07175 -79.38076 56 ft 12 kts 218°
2026-04-27 21:42 9.07097 -79.38114 55 ft 12 kts 221°
2026-04-27 21:42 9.07014 -79.38166 55 ft 6 kts 206°
2026-04-27 21:43 9.06970 -79.38192 55 ft 7 kts 215°
2026-04-27 21:43 9.06933 -79.38225 57 ft 8 kts 227°
2026-04-27 21:43 9.06903 -79.38264 57 ft 5 kts 239°
2026-04-27 21:43 9.06884 -79.38299 58 ft 6 kts 242°
2026-04-27 21:44 9.06863 -79.38338 58 ft 5 kts 239°
2026-04-27 21:44 9.06842 -79.38362 58 ft 3 kts 224°
2026-04-27 21:44 9.06813 -79.38387 59 ft 7 kts 217°
2026-04-27 21:44 9.06788 -79.38432 61 ft 6 kts 278°
2026-04-27 21:45 9.06793 -79.38460 62 ft 2 kts 279°
2026-04-27 21:45 9.06795 -79.38472 62 ft 0 kts 279°